Regional Weather Roundup
Issued by NWS Cleveland, OH

Home | Current Version | Previous Version | Graphics & Text | Print | Product List | Glossary On
Versions: 1 2 3 4 5 6 7 8 9 10 11 12 13 14 15 16 17 18 19 20 21 22 23 24 25 26 27 28 29 30 31 32 33 34 35 36 37 38 39 40 41 42 43 44 45 46 47 48 49 50
000
ASUS41 KCLE 260100
RWRCLE
OHIO REGIONAL WEATHER ROUNDUP
NATIONAL WEATHER SERVICE WILMINGTON, OH
800 PM EST SUN JAN 25 2015

NOTE: "FAIR" INDICATES FEW OR NO CLOUDS BELOW 12,000 FEET WITH NO
SIGNIFICANT WEATHER AND/OR OBSTRUCTIONS TO VISIBILITY.

OHZ001>008-015>018-024>027-034-035-043-044-260200-
   NORTHWEST OHIO

CITY           SKY/WX    TMP DP  RH WIND       PRES   REMARKS
DEFIANCE       LGT SNOW  20  15  81 NE14G20   29.91R WCI   7
FINDLAY        LGT SNOW  21  17  84 NE21G28   29.85S FOG     WCI   5
TOLEDO EXPRESS FLURRIES  18  12  77 NE14      29.92R WCI   4
TOLEDO EXEC    LGT SNOW  18  10  71 NE14G25   29.94R WCI   4
LIMA           LGT SNOW  22  17  81 NE17G29   29.82R VSB 3/4 WCI   8
$$

OHZ009>014-019>023-028>033-038-089-260200-
   NORTHEAST OHIO

CITY           SKY/WX    TMP DP  RH WIND       PRES   REMARKS
CLE-HOPKINS    LGT SNOW  20  16  84 NE16      29.92S FOG     WCI   6
CLE-LAKEFRONT  LGT SNOW  21  15  78 NE15G22   29.91R WCI   8
CUY CO. ARPT   FLURRIES  21  18  86 NE15      29.90R WCI   8
LORAIN-ELYRIA  LGT SNOW  19  16  88 NE18G28   29.90R FOG     WCI   4
ASHTABULA      CLOUDY    19  10  68 NE10      29.91R WCI   7
AKRON-CANTON   LGT SNOW  24  19  81 NE15      29.81S FOG     WCI  11
WOOSTER        LGT SNOW  22  20  92 NE15      29.82S VSB 3/4 WCI   9
MANSFIELD      LGT SNOW  21  19  92 N12       29.80S VSB 3/4 WCI   9
YOUNGSTOWN     FLURRIES  22  18  85 N12       29.84R WCI  10
$$

OHZ042-051>053-060>062-070>072-077>081-260200-
  SOUTHWEST OHIO

CITY           SKY/WX    TMP DP  RH WIND       PRES   REMARKS
CINC-COVINGTON RAIN      39  37  92 NE7       29.68R FOG
CINC-LUNKEN    LGT RAIN  38  38 100 N6        29.72R FOG
HAMILTON       LGT RAIN  38  37  97 N7        29.73R FOG
DAYTON         NOT AVBL
WRIGHT-PAT AFB LGT SNOW  32  32 100 N13       29.75R FOG     WCI  22
DAYTON GENERAL LGT SNOW  33  32  96 NE8       29.71S VSB 1   WCI  26
WILMINGTON     LGT RAIN  35  34  96 NE5       29.71R FOG
$$

OHZ036-037-039>041-045>050-054>059-063>069-073>076-082>088-260200-
  CENTRAL AND SOUTHEAST OHIO

CITY           SKY/WX    TMP DP  RH WIND       PRES   REMARKS
COLUMBUS       LGT SNOW  32  31  96 NE5       29.75R FOG     WCI  27
OSU AIRPORT    LGT SNOW  32  31  96 NE12      29.75R VSB 3/4 WCI  23
BOLTON FIELD   NOT AVBL
RICKENBACK AFB NOT AVBL
NEWARK         LGT SNOW  33  32  96 NE6       29.76R FOG     WCI  28
MARION         LGT SNOW  22  18  85 NE18      29.80S FOG     WCI   7
LANCASTER      LGT SNOW  34  33  96 E6        29.75R FOG     WCI  29
ZANESVILLE     SNOW      32  30  92 NE5       29.76S VSB 1/2 WCI  27
NEW PHILLY     LGT SNOW  31  27  85 NE8       29.80S FOG     WCI  23
$$


USA.gov is the U.S. government's official web portal to all federal, state and local government web resources and services.